This is the latest recevied weather packets stored in our database for station/object KI5RAB. If no packets are shown the sender has not sent any weather packets the latest 1 day(s).
| Time | Temp. | Humidity | Pressure | Rain* | Wind** | Luminosity | Snow |
|---|---|---|---|---|---|---|---|
| 1778000705 | 25° C | 83% | 1012 hPa | 0 mm | 0.45 m/s, 171° | 246 W/m² | - |
| 1778000400 | 25° C | 84% | 1012.2 hPa | 0 mm | 0.45 m/s, 319° | 204 W/m² | - |
| 1778000096 | 25° C | 83% | 1012.1 hPa | 0 mm | 0.89 m/s, 192° | 218 W/m² | - |
| 1777999792 | 25° C | 84% | 1012.1 hPa | 0 mm | 0.89 m/s, 312° | 204 W/m² | - |
| 1777999488 | 25° C | 84% | 1012.1 hPa | 0 mm | 0.45 m/s, 295° | 201 W/m² | - |
| 1777999186 | 24.44° C | 85% | 1012.1 hPa | 0 mm | 0.45 m/s, 312° | 205 W/m² | - |
| 1777998884 | 24.44° C | 84% | 1012.2 hPa | 0 mm | 0 m/s | 263 W/m² | - |
| 1777998583 | 24.44° C | 85% | 1012.2 hPa | 0 mm | 0.45 m/s, 24° | 224 W/m² | - |
| 1777998279 | 23.89° C | 86% | 1012.2 hPa | 0 mm | 0 m/s | 212 W/m² | - |
| 1777997976 | 23.89° C | 87% | 1012.2 hPa | 0 mm | 1.34 m/s, 226° | 197 W/m² | - |
| 1777997672 | 23.33° C | 88% | 1012.4 hPa | 0 mm | 0.89 m/s, 286° | 162 W/m² | - |
| 1777997370 | 23.33° C | 88% | 1012.4 hPa | 0 mm | 0 m/s | 118 W/m² | - |
| 1777997068 | 23.33° C | 88% | 1012.3 hPa | 0 mm | 0 m/s | 152 W/m² | - |
| 1777996764 | 23.33° C | 88% | 1012.2 hPa | 0 mm | 0 m/s | 147 W/m² | - |
| 1777996461 | 23.33° C | 88% | 1012.3 hPa | 0 mm | 0.89 m/s, 271° | 150 W/m² | - |
| 1777996157 | 23.33° C | 89% | 1012.3 hPa | 0 mm | 0.45 m/s, 255° | 118 W/m² | - |
| 1777995853 | 22.78° C | 89% | 1012.2 hPa | 0 mm | 0 m/s | 114 W/m² | - |
| 1777995550 | 22.78° C | 89% | 1012.3 hPa | 0 mm | 0.89 m/s, 291° | 118 W/m² | - |
| 1777995247 | 22.78° C | 89% | 1012.3 hPa | 0 mm | 0 m/s | 130 W/m² | - |
| 1777994944 | 22.78° C | 89% | 1012.3 hPa | 0 mm | 0 m/s | 74 W/m² | - |
| 1777994641 | 22.78° C | 90% | 1012.3 hPa | 0 mm | 1.34 m/s, 204° | 118 W/m² | - |
| 1777994335 | 22.78° C | 90% | 1012.2 hPa | 0 mm | 0.45 m/s, 267° | 89 W/m² | - |
| 1777994032 | 22.22° C | 90% | 1012.2 hPa | 0 mm | 0.89 m/s, 323° | 93 W/m² | - |
| 1777993729 | 22.22° C | 91% | 1012.2 hPa | 0 mm | 1.34 m/s, 288° | 103 W/m² | - |
| 1777993427 | 22.22° C | 91% | 1012.4 hPa | 0 mm | 0.45 m/s, 319° | 79 W/m² | - |
* Rain latest hour (hover to see other rain measurements)
** Current wind speed in m/s (hover to see current wind gust speed)